Location: La Bitarelle
(45.2217°N, 2.0048°E)
Time: 09:24:19
(UTC+00:00)

Daily predictions for brighter satellites

Satellite Brightness Start Highest point End
(mag) Time Altitude Azimuth Time Altitude Azimuth Time Altitude Azimuth
COSMOS 2406 3.3 16:34:11 10° SSW 16:39:56 90° E 16:45:42 10° NNE
Cosmos 468 Rocket 4.5 16:36:06 10° SSW 16:41:12 62° WNW 16:46:24 10° NNE
Meteor 1-31 Rocket 4.4 16:40:45 10° SSW 16:44:20 39° W 16:47:57 10° NNW
Cosmos 1428 Rocket 4.5 16:42:20 10° N 16:48:28 67° E 16:54:36 10° SSE
NOSS 2-2 (C) 4.5 16:44:57 10° NW 16:50:14 85° NE 16:57:44 10° SE
CZ-4B R/B 4.1 16:49:12 10° ESE 16:53:28 25° ENE 16:57:42 10° N
Cosmos 1092 Rocket 4.1 16:47:12 10° N 16:53:37 83° E 16:59:55 10° S
Cosmos 1898 Rocket 4.4 16:48:42 10° NNW 16:53:49 54° WSW 16:58:51 10° S
CZ-2D R/B 4.2 16:52:20 10° SE 16:55:33 26° ENE 16:58:46 10° NNE
ATLAS CENTAUR R/B 3.3 16:46:21 10° SW 16:57:08 69° NW 17:01:27 10° NE
Meteor 2-21 4.4 16:51:06 10° N 16:57:10 69° ENE 17:03:10 10° SSE
USA 267 3.4 16:50:58 10° NE 16:57:29 67° SE 17:03:58 10° SW
Cosmos 1939 Rocket 2.9 16:54:04 10° SSE 16:58:07 62° ENE 17:02:07 10° N
USA 306 3.9 16:56:44 10° NW 17:00:31 30° NNE 17:03:51 12° ENE
Cosmos 1151 Rocket 3.5 16:56:38 10° SSE 17:00:40 40° E 17:04:46 10° NNE
Cosmos 1633 Rocket 3.6 16:58:07 10° N 17:02:13 37° ENE 17:06:18 10° SE
COSMO-SKYMED 1 4.0 16:59:25 10° NE 17:02:29 19° E 17:05:32 10° SE
Cosmos 1782 2.7 16:58:44 10° S 17:02:43 81° E 17:06:43 10° N
Cosmos 1666 3.1 17:00:29 10° N 17:03:59 39° ENE 17:07:29 10° SSE
Cosmos 2360 Rocket 3.6 17:01:52 10° N 17:05:30 17° NE 17:08:17 12° ENE
ISS -2.6 17:02:59 10° WNW 17:06:17 46° SW 17:09:32 10° SE
Cosmos 1900 4.5 17:02:33 10° SSW 17:07:17 55° ESE 17:11:53 11° NE
SeaSat 1 4.5 17:05:26 10° N 17:09:12 22° NW 17:12:56 10° W
SL-08 R/B 4.1 17:05:33 10° N 17:10:05 51° WNW 17:14:33 10° SW
NOAA 12 4.5 17:05:24 10° S 17:10:42 72° WSW 17:16:02 10° NNW
Cosmos 1818 3.7 17:06:15 10° NNW 17:11:39 56° NE 17:17:00 10° SE
CZ-2C R/B 3.5 17:12:22 10° SSW 17:15:19 18° S 17:18:13 10° SE
Cosmos 2279 Rocket 4.0 17:10:35 10° S 17:16:39 60° E 17:22:44 10° NNE
Cosmos 2142 Rocket 4.5 17:11:30 10° S 17:17:35 65° E 17:23:46 10° NNE
ATLAS 5 CENTAUR R/B 3.1 17:10:52 10° NW 17:17:43 31° NNE 17:19:39 18° ENE
Cosmos 841 Rocket 3.9 17:12:40 10° SSW 17:17:47 64° WNW 17:22:54 10° NNE
USA 307 3.7 17:17:18 10° NW 17:21:11 33° NNE 17:23:33 19° ENE
CZ-4C R/B 3.1 17:15:24 10° NW 17:22:44 89° SW 17:31:16 10° SE
Lacrosse 5 rocket 1.2 17:20:48 10° NW 17:24:42 65° NE 17:28:49 10° ESE
Cosmos 2208 Rocket 4.1 17:21:49 10° S 17:27:11 68° ESE 17:32:37 10° NNE
ATLAS 2AS CENTAUR R/B 4.4 17:22:26 10° NW 17:27:28 19° N 17:31:18 13° NE
Cosmos 2322 Rocket 2.8 17:23:37 10° N 17:28:48 34° NE 17:33:57 10° ESE
Cosmos 1933 Rocket 4.4 17:25:33 10° NNE 17:29:16 27° ENE 17:32:56 10° SE
AQUARIUS 4.3 17:24:56 10° S 17:29:25 81° WSW 17:33:57 10° NNW
Cosmos 1328 Rocket 3.6 17:26:19 10° S 17:30:41 60° E 17:35:05 10° NNE
USA 234 3.2 17:24:21 10° ESE 17:30:51 69° NNE 17:37:20 10° NW
Cosmos 2150 Rocket 4.2 17:25:50 10° N 17:30:51 47° ENE 17:35:54 10° SE
Cosmos 1666 Rocket 3.5 17:27:23 10° N 17:31:51 88° WSW 17:36:13 10° S
Cosmos 1980 Rocket 3.0 17:26:35 10° NNW 17:32:07 56° WSW 17:37:35 10° S
CORIOLIS 4.4 17:29:30 10° S 17:34:54 75° WSW 17:40:22 10° NNW
Cosmos 1470 Rocket 3.7 17:31:06 10° N 17:35:27 49° ENE 17:39:47 10° SSE
Cosmos 1544 3.6 17:32:10 10° N 17:35:30 34° ENE 17:38:50 10° SE
Cosmos 1867 4.4 17:31:27 10° S 17:36:11 31° ESE 17:38:27 23° ENE
Cosmos 1812 3.0 17:32:42 10° SSW 17:36:32 69° W 17:40:23 10° N
X-37B 1.6 17:34:28 10° SW 17:37:03 30° SSE 17:37:49 26° SE
Cosmos 1125 Rocket 3.7 17:31:58 10° NNW 17:37:06 50° ENE 17:42:12 10° SE
PSLV R/B 3.6 17:33:51 10° SSE 17:37:32 90° WSW 17:41:19 10° NNW
H-2A R/B 1.9 17:33:10 10° SSE 17:38:17 73° ENE 17:43:17 10° N
DEBRIS 4.3 17:36:16 10° S 17:38:17 19° ESE 17:38:35 19° ESE
Okean O Rocket 2.0 17:35:58 10° SE 17:40:08 41° ENE 17:44:20 10° N
Meteor 2-8 Rocket 4.4 17:34:28 10° S 17:40:34 69° E 17:46:43 10° NNE
Meteor 1-10 Rocket 4.3 17:35:09 10° S 17:40:44 53° E 17:46:13 10° NNE
Meteor 1-11 Rocket 4.0 17:37:07 10° N 17:42:33 46° ENE 17:48:04 10° SSE
USA 308 3.4 17:39:59 10° NW 17:44:01 40° NNE 17:45:21 31° ENE
SL-16 R/B 2.2 17:43:57 10° NNW 17:49:35 60° ENE 17:55:11 10° SE
ARGOS 3.2 17:44:53 10° SSE 17:50:10 58° ENE 17:55:28 10° N
SKYMED 2 3.6 17:47:47 18° NNE 17:50:51 57° E 17:55:08 10° S
Cosmos 2082 Rocket 3.2 17:45:42 10° SW 17:51:06 44° WNW 17:56:31 10° NNE
deb Chang Zheng 4 3.4 17:51:24 10° SSE 17:55:40 68° ENE 17:59:57 10° N
COSMOS 2455 4.1 17:54:05 10° WSW 17:59:36 36° NW 18:04:54 11° NNE
Feng Yun 1-1 Rocket 4.4 17:59:23 10° SE 18:05:06 52° ENE 18:10:44 10° N
USA 305 2.9 18:04:16 10° NW 18:08:28 57° NNE 18:08:52 55° NE
Cosmos 2333 Rocket 3.4 18:04:29 10° N 18:08:04 24° NNE 18:08:04 24° NNE
Cosmos 1356 Rocket 3.3 18:05:55 10° N 18:10:08 76° E 18:14:24 10° SSE
CZ-2C R/B 2.5 18:06:50 10° NNE 18:12:01 89° WNW 18:17:12 10° SSW
Aureole 3 Rocket 3.5 18:12:36 10° S 18:17:02 64° E 18:23:21 10° NNE
Cosmos 2219 Rocket 3.7 18:12:33 10° N 18:15:05 20° NNE 18:15:05 20° NNE
Cosmos 44 Rocket 4.3 18:12:57 10° NW 18:17:37 45° WSW 18:22:06 10° S
Cosmos 1515 Rocket 3.6 18:13:23 10° SSW 18:17:49 80° W 18:20:27 24° N
Cosmos 1655 Rocket 4.1 18:11:42 10° N 18:18:07 83° W 18:24:27 10° S
Cosmos 921 Rocket 3.7 18:16:20 10° SW 18:20:25 50° WNW 18:22:47 23° N
Spot 2 4.4 18:23:28 45° SE 18:24:47 60° ENE 18:29:48 10° N
CZ-4B R/B 3.9 18:28:28 10° S 18:33:42 51° W 18:38:54 10° NNW
COSMO-SKYMED 1 3.6 18:36:23 22° N 18:38:52 45° WNW 18:42:59 10° SW
USA 267 3.8 18:37:47 33° NNE 18:40:22 49° NNW 18:46:36 10° W
USA 306 3.4 18:36:32 10° NW 18:39:52 54° NW 18:39:52 54° NW
Landsat 5 3.9 18:41:36 57° WNW 18:41:36 57° WNW 18:45:23 10° SSW
Meteor 1-27 Rocket 3.7 18:38:15 10° SSW 18:43:45 76° WNW 18:46:30 31° N
Cosmos 2360 Rocket 2.1 18:44:44 10° NNW 18:50:08 78° NNE 18:50:08 78° NNE
Cosmos 2237 4.4 18:48:11 10° NNW 18:53:52 71° WSW 18:55:53 41° S
CZ-2C R/B 3.5 18:51:04 10° SW 18:53:23 18° SSW 18:53:23 18° SSW
DMSP B5D2-2 4.4 19:00:33 58° SSW 19:00:33 58° SSW 19:04:44 10° SSW
USA 307 4.4 18:57:08 10° WNW 18:59:35 33° WNW 18:59:35 33° WNW
Lacrosse 5 rocket 3.7 19:00:32 10° W 19:03:29 20° SW 19:04:38 18° SSW
Cosmos 2322 Rocket 3.3 19:07:35 10° NW 19:12:56 42° WSW 19:17:09 16° S
USA 234 4.3 19:10:00 20° S 19:14:05 41° SW 19:20:13 10° WNW
Okean O Rocket 4.1 19:13:15 10° SW 19:16:38 21° W 19:20:03 10° NW
NOSS 3-4 (A) 4.3 19:11:14 10° NNW 19:16:19 47° N 19:16:19 47° N
NOSS 3-4 (C) 4.3 19:11:20 10° NNW 19:16:24 46° N 19:16:24 46° N
Cosmos 1867 4.4 19:14:19 10° WSW 19:19:10 46° WNW 19:19:10 46° WNW
ATLAS 2AS CENTAUR R/B 4.0 19:14:23 10° NNW 19:18:44 28° N 19:18:44 28° N
NOSS 3-3 (A) 4.4 19:21:04 10° SW 19:25:51 56° W 19:25:51 56° W
NOSS 3-3 (C) 4.4 19:21:10 10° SW 19:25:55 56° W 19:25:55 56° W
SL-16 R/B 4.4 19:28:59 10° NW 19:33:12 22° W 19:37:25 10° SSW
Cosmos 2333 Rocket 4.2 19:48:17 10° NNW 19:50:07 21° NW 19:50:07 21° NW
